[[{"header":{"parameterUnit":"m.s-1","parameterCategory":1,"la1":30.2991,"la2":30.254,"lo1":-89.0895,"lo2":-89.0444,"dy":0.0017,"dx":0.0017,"nx":28,"ny":28,"refTime":"2023-11-21T09:00:00:Z","depth":0,"parameterNumber":2,"parameterNumberName":"U-component_of_WINDS"},"data":[0,0,0,0,0,0,0,0,0,0,0,0,0,0,0,0,0,0,0,0,0,0,0,0,0,0,0,0,0,0,0,0,0,0,0,0,0,0,0,0,0,0,0,0,0,0,0,0,0,0,0,0,0,0,0,0,0,0,3.0364,3.0365,0,3.0446,3.0447,3.0448,3.0438,3.0436,3.0435,3.0434,3.0519,3.0523,3.0526,0,0,0,0,0,0,0,0,0,0,0,0,0,3.0205,3.0208,3.0364,3.0365,3.0366,3.0446,3.0447,3.0448,3.0438,3.0436,3.0435,3.0433,3.0518,3.0522,3.0527,0,0,0,0,0,0,0,0,0,0,0,0,0,3.0279,3.0209,3.0364,3.0371,3.0372,3.0446,3.0447,3.0448,3.0438,3.0436,3.0434,3.0432,3.0517,3.0522,3.0527,3.06,0,0,3.0543,3.0546,0,0,0,0,0,0,0,0,3.0275,3.0285,3.0369,3.037,3.0372,3.0429,3.0422,3.0499,3.0439,3.0413,3.0434,3.0431,3.0491,3.0499,3.0518,3.0604,3.0608,3.0544,3.0547,3.0549,3.0551,0,0,0,0,0,0,0,3.027,3.0282,3.0397,3.037,3.0372,3.0372,3.038,3.0437,3.0463,3.0415,3.0415,3.0424,3.0492,3.0513,3.052,3.0609,3.0544,3.0548,3.0552,3.0554,3.0765,3.0768,0,0,0,0,0,0,3.0263,3.0277,3.0394,3.0399,3.0318,3.0376,3.0385,3.0413,3.0462,3.0467,3.0426,3.0424,3.0505,3.0514,3.0523,3.0616,3.0549,3.0554,3.0557,3.0763,3.0766,3.0769,0,0,0,0,0,0,3.0259,3.0273,3.0391,3.0338,3.0353,3.0381,3.0412,3.0416,3.0437,3.047,3.0475,3.0443,3.0504,3.0516,3.0582,3.0619,3.0557,3.0562,3.076,3.0764,3.0767,3.08,0,0,0,0,0,0,3.0255,3.0272,3.0298,3.0339,3.0356,3.0447,3.0414,3.0419,3.0446,3.0444,3.0487,3.0492,3.0503,3.0575,3.0588,3.0625,3.0566,3.0757,3.0762,3.0766,3.0795,3.0804,3.0811,0,0,0,0,0,3.0249,3.0303,3.0299,3.0313,3.0389,3.0449,3.0459,3.0469,3.0449,3.0477,3.0499,3.0491,3.0612,3.0581,3.0596,3.0635,3.0755,3.0761,3.0766,3.0792,3.0802,3.0811,0,0,0,0,0,0,3.0265,3.0308,3.0305,3.0373,3.0408,3.0447,3.0482,3.0479,3.052,3.0517,3.0529,3.0539,3.0608,3.0628,3.0593,3.0712,3.0681,3.069,3.0696,3.0706,3.0714,3.0708,3.057,0,0,0,0,0,3.0276,3.032,3.0356,3.0413,3.043,3.0454,3.048,3.0486,3.0522,3.0537,3.0563,3.06,3.0647,3.0677,3.0722,3.0798,3.081,3.0833,3.0841,3.0847,3.0855,3.0903,3.0915,3.0787,3.0787,3.0787,0,0,3.0301,3.033,3.0356,3.0417,3.0444,3.0492,3.0466,3.0515,3.0552,3.0544,3.061,3.0631,3.0673,3.0747,3.078,3.0766,3.0894,3.0854,3.0859,3.0864,3.091,3.0922,3.0933,3.0791,3.079,3.0789,0,0,3.0369,3.0394,3.0447,3.0476,3.0518,3.0534,3.0547,3.0588,3.0602,3.0668,3.0665,3.0709,3.0788,3.082,3.0847,3.0934,3.093,3.0948,3.099,3.1036,3.1046,3.1055,3.1091,3.1103,3.0955,3.0955,3.0956,0,3.0394,3.0464,3.0474,3.0526,3.0555,3.0552,3.0608,3.0635,3.069,3.0711,3.0694,3.0798,3.0825,3.0909,3.0931,3.0951,3.0969,3.0943,3.1043,3.1053,3.1061,3.1095,3.1108,3.0958,3.0957,3.0957,3.0957,0,3.0495,3.0544,3.0582,3.0636,3.0669,3.0723,3.0744,3.0777,3.0781,3.08,3.087,3.0904,3.0958,3.0978,3.0981,3.1064,3.1054,3.104,3.101,3.1076,3.1108,3.1121,3.0961,3.096,3.0959,3.0959,0,0,3.0574,3.0637,3.0651,3.0678,3.0727,3.0766,3.0821,3.0874,3.0904,3.0943,3.0993,3.1063,3.1052,3.1082,3.109,3.113,3.1204,3.1112,3.1114,3.1131,3.1302,3.1314,3.1329,3.1201,3.1203,3.1205,3.13,0,3.065,3.0747,3.0761,3.0848,3.0896,3.0896,3.0945,3.0982,3.1002,3.1048,3.107,3.1122,3.1101,3.112,3.116,3.1186,3.1238,3.1179,3.125,3.1253,3.1242,3.1345,3.1357,3.1444,3.1312,3.1314,3.1316,0,3.0751,3.0795,3.0887,3.0935,3.0955,3.0999,3.1052,3.1094,3.1138,3.1151,3.1187,3.1192,3.1253,3.122,3.1307,3.1267,3.1297,3.1315,3.1319,3.1327,3.129,3.136,3.1472,3.1487,3.1335,3.1333,3.1332,0,3.0805,3.0887,3.0954,3.0977,3.1032,3.1064,3.1089,3.113,3.1164,3.121,3.1233,3.1286,3.1316,3.1358,3.1379,3.1352,3.1467,3.1433,3.1482,3.1482,3.1507,3.1505,3.1629,3.1522,3.1521,3.1521,3.1521,0,3.089,3.0947,3.0979,3.1021,3.1087,3.1104,3.1169,3.1193,3.1232,3.1281,3.1283,3.1329,3.1352,3.1403,3.1419,3.1492,3.1504,3.1519,3.1523,3.152,3.1519,3.1541,3.1537,3.1525,3.1524,3.1523,3.1523,0,3.0961,3.0984,3.1058,3.1106,3.112,3.1167,3.1209,3.1251,3.1273,3.1335,3.135,3.1384,3.1445,3.1469,3.1542,3.1554,3.1639,3.1637,3.1624,3.1626,3.1675,3.1671,3.1819,3.1841,3.1716,3.1718,3.1718,0,3.1015,3.1059,3.1113,3.1146,3.1173,3.1225,3.126,3.1279,3.1316,3.1372,3.1409,3.1469,3.1519,3.1616,3.1649,3.1706,3.1708,3.1756,3.1716,3.1714,3.1714,3.1712,3.1719,3.1764,3.1765,3.1766,3.1767,0,3.111,3.112,3.1169,3.1225,3.1266,3.131,3.1353,3.1381,3.1408,3.1449,3.1511,3.155,3.1627,3.1689,3.1749,3.1777,3.1779,3.1779,3.1794,3.1793,3.1785,3.1795,3.1648,3.1776,3.1775,3.1774,3.1774,3.1773,3.1176,3.1218,3.1264,3.1321,3.1356,3.1397,3.1441,3.1469,3.1521,3.1585,3.1594,3.1662,3.171,3.1792,3.1823,3.1879,3.1867,3.1887,3.1893,3.1899,3.1904,3.1775,3.1889,3.1889,3.1889,3.1889,3.1889,0,3.1275,3.1305,3.1357,3.1419,3.1465,3.1461,3.151,3.1549,3.1609,3.1653,3.1703,3.1778,3.1839,3.1878,3.1941,3.1978,3.1981,3.1994,3.1993,3.2001,3.1909,3.1892,3.1992,3.1992,3.1992,3.1992,3.1992,3.1991,3.1332,3.1404,3.1421,3.1512,3.1543,3.1609,3.1639,3.1679,3.1715,3.1798,3.1849,3.1874,3.1918,3.1985,3.2043,3.2053,3.2078,3.2093,3.2103,3.2017,3.2006,3.1996,3.198,3.2097,3.2097,3.2191,3.2192,3.2192]},{"header":{"parameterUnit":"m.s-1","parameterCategory":1,"la1":30.2991,"la2":30.254,"lo1":-89.0895,"lo2":-89.0444,"dy":0.0017,"dx":0.0017,"nx":28,"ny":28,"refTime":"2023-11-21T09:00:00:Z","depth":0,"parameterNumber":3,"parameterNumberName":"V-component_of_WINDS"},"data":[0,0,0,0,0,0,0,0,0,0,0,0,0,0,0,0,0,0,0,0,0,0,0,0,0,0,0,0,0,0,0,0,0,0,0,0,0,0,0,0,0,0,0,0,0,0,0,0,0,0,0,0,0,0,0,0,0,0,-3.7015,-3.7015,0,-3.7007,-3.7007,-3.7007,-3.7039,-3.704,-3.7041,-3.7042,-3.7025,-3.7024,-3.7023,0,0,0,0,0,0,0,0,0,0,0,0,0,-3.705,-3.7049,-3.7015,-3.7015,-3.7015,-3.7007,-3.7007,-3.7007,-3.7039,-3.704,-3.7041,-3.7042,-3.7026,-3.7024,-3.7023,0,0,0,0,0,0,0,0,0,0,0,0,0,-3.7038,-3.7049,-3.7015,-3.703,-3.7031,-3.7007,-3.7007,-3.7007,-3.7038,-3.704,-3.7041,-3.7043,-3.7026,-3.7024,-3.7022,-3.6981,0,0,-3.7016,-3.7015,0,0,0,0,0,0,0,0,-3.7038,-3.7036,-3.7028,-3.7029,-3.703,-3.7026,-3.7014,-3.6998,-3.7038,-3.7035,-3.7042,-3.7043,-3.7024,-3.7022,-3.7017,-3.6981,-3.698,-3.7016,-3.7015,-3.7014,-3.7013,0,0,0,0,0,0,0,-3.7039,-3.7037,-3.7012,-3.7027,-3.7029,-3.7035,-3.7035,-3.7011,-3.7021,-3.7036,-3.7038,-3.7037,-3.7025,-3.7019,-3.7017,-3.698,-3.7016,-3.7014,-3.7013,-3.7012,-3.6911,-3.691,0,0,0,0,0,0,-3.7039,-3.7037,-3.7012,-3.7011,-3.7038,-3.7033,-3.7033,-3.7025,-3.7022,-3.7023,-3.7036,-3.7039,-3.7022,-3.7019,-3.7017,-3.697,-3.7014,-3.7012,-3.7011,-3.6912,-3.6911,-3.6909,0,0,0,0,0,0,-3.704,-3.7037,-3.7012,-3.7025,-3.7023,-3.7031,-3.7022,-3.7025,-3.7019,-3.7022,-3.7023,-3.7029,-3.7023,-3.7019,-3.6991,-3.6969,-3.7011,-3.7009,-3.6914,-3.6912,-3.691,-3.6874,0,0,0,0,0,0,-3.7041,-3.7037,-3.7022,-3.7025,-3.7022,-3.6988,-3.7021,-3.7023,-3.7017,-3.702,-3.7016,-3.7016,-3.7024,-3.6994,-3.6989,-3.6967,-3.7008,-3.6916,-3.6913,-3.6911,-3.6877,-3.6871,-3.6866,0,0,0,0,0,-3.7042,-3.701,-3.7021,-3.7018,-3.7005,-3.6987,-3.6985,-3.6997,-3.7015,-3.7,-3.7002,-3.7016,-3.6973,-3.6991,-3.6985,-3.6963,-3.6917,-3.6914,-3.6911,-3.688,-3.6872,-3.6866,0,0,0,0,0,0,-3.7001,-3.7011,-3.7023,-3.6992,-3.6989,-3.6993,-3.6974,-3.6988,-3.6977,-3.6981,-3.6993,-3.6992,-3.6961,-3.6959,-3.6979,-3.6924,-3.6948,-3.6943,-3.6926,-3.6919,-3.6913,-3.6914,-3.7006,0,0,0,0,0,-3.699,-3.6977,-3.6985,-3.6956,-3.6955,-3.6965,-3.6957,-3.6967,-3.6963,-3.6961,-3.6961,-3.6955,-3.694,-3.6929,-3.6916,-3.6878,-3.6877,-3.686,-3.6854,-3.6849,-3.6844,-3.6825,-3.6818,-3.6898,-3.6898,-3.6898,0,0,-3.6963,-3.6967,-3.6958,-3.6949,-3.6947,-3.6932,-3.6963,-3.6945,-3.6934,-3.6957,-3.6932,-3.6932,-3.6925,-3.6893,-3.6878,-3.689,-3.6823,-3.6845,-3.6841,-3.6839,-3.6821,-3.6814,-3.6807,-3.6896,-3.6896,-3.6896,0,0,-3.6908,-3.691,-3.6888,-3.6887,-3.6886,-3.6894,-3.6888,-3.6891,-3.6893,-3.6868,-3.6886,-3.6872,-3.6845,-3.6841,-3.6835,-3.6782,-3.6794,-3.6777,-3.6745,-3.6727,-3.672,-3.6715,-3.6696,-3.6689,-3.6772,-3.6772,-3.6772,0,-3.6875,-3.6856,-3.6873,-3.6856,-3.6851,-3.6876,-3.6853,-3.685,-3.6843,-3.6839,-3.6853,-3.6823,-3.682,-3.6787,-3.6775,-3.6769,-3.6763,-3.6776,-3.6721,-3.6715,-3.671,-3.6692,-3.6685,-3.677,-3.6771,-3.6771,-3.6771,0,-3.6815,-3.6802,-3.6783,-3.678,-3.6774,-3.6753,-3.6766,-3.6757,-3.6768,-3.6773,-3.6748,-3.6747,-3.6734,-3.6727,-3.6736,-3.6696,-3.6703,-3.6719,-3.6743,-3.67,-3.6684,-3.6677,-3.6767,-3.6768,-3.6769,-3.6769,0,0,-3.6732,-3.6742,-3.6735,-3.6735,-3.6737,-3.6726,-3.6706,-3.6698,-3.669,-3.6685,-3.6668,-3.6647,-3.6663,-3.6656,-3.6665,-3.6649,-3.6608,-3.6667,-3.6667,-3.6656,-3.6564,-3.6552,-3.6544,-3.6618,-3.6616,-3.6615,-3.6565,0,-3.6678,-3.6648,-3.6665,-3.6631,-3.6619,-3.6644,-3.6627,-3.6626,-3.6631,-3.662,-3.6625,-3.661,-3.6632,-3.6628,-3.6613,-3.6616,-3.659,-3.662,-3.66,-3.66,-3.6601,-3.6535,-3.6522,-3.6474,-3.6558,-3.6557,-3.6557,0,-3.6611,-3.6608,-3.6574,-3.6582,-3.6577,-3.6562,-3.6556,-3.6546,-3.6545,-3.655,-3.6545,-3.6558,-3.6538,-3.6564,-3.6536,-3.6557,-3.655,-3.6551,-3.6549,-3.6546,-3.6575,-3.6531,-3.6459,-3.6452,-3.6547,-3.6547,-3.6548,0,-3.6554,-3.6541,-3.652,-3.6519,-3.6526,-3.6515,-3.6517,-3.6519,-3.6513,-3.6507,-3.6504,-3.6494,-3.6489,-3.6481,-3.6492,-3.6509,-3.6463,-3.6489,-3.6465,-3.6465,-3.6452,-3.6453,-3.6378,-3.6449,-3.6449,-3.6449,-3.645,0,-3.6492,-3.647,-3.6495,-3.6481,-3.6458,-3.6477,-3.6452,-3.6457,-3.6459,-3.6446,-3.6466,-3.6453,-3.6468,-3.6456,-3.6464,-3.644,-3.6437,-3.644,-3.6442,-3.6438,-3.6437,-3.6432,-3.6436,-3.6447,-3.6448,-3.6448,-3.6449,0,-3.6423,-3.6439,-3.6417,-3.6428,-3.643,-3.6412,-3.6421,-3.6408,-3.6417,-3.64,-3.6397,-3.6409,-3.6396,-3.6407,-3.6393,-3.6399,-3.6367,-3.6374,-3.6368,-3.637,-3.6346,-3.6348,-3.6264,-3.6254,-3.6332,-3.6332,-3.6331,0,-3.6382,-3.6367,-3.6377,-3.6372,-3.6374,-3.6364,-3.636,-3.6378,-3.6372,-3.6372,-3.6359,-3.635,-3.6342,-3.6321,-3.6327,-3.6317,-3.6323,-3.6295,-3.6322,-3.6319,-3.6323,-3.6324,-3.6322,-3.6289,-3.6288,-3.6287,-3.6287,0,-3.6308,-3.6317,-3.6311,-3.6309,-3.6304,-3.6302,-3.6301,-3.6295,-3.6314,-3.6306,-3.6296,-3.6291,-3.628,-3.6269,-3.6262,-3.6262,-3.6277,-3.6279,-3.6273,-3.6268,-3.6265,-3.6266,-3.6353,-3.628,-3.6281,-3.6281,-3.6282,-3.6282,-3.6251,-3.624,-3.6246,-3.6239,-3.6242,-3.6242,-3.6231,-3.624,-3.6232,-3.6227,-3.6238,-3.6224,-3.6225,-3.6218,-3.6217,-3.6206,-3.6217,-3.6208,-3.6206,-3.6203,-3.62,-3.6268,-3.6205,-3.6205,-3.6205,-3.6205,-3.6205,0,-3.6178,-3.6185,-3.6179,-3.6179,-3.6174,-3.6193,-3.6194,-3.6187,-3.6176,-3.6178,-3.6172,-3.616,-3.6151,-3.6158,-3.615,-3.6139,-3.6146,-3.6136,-3.6137,-3.6137,-3.619,-3.6196,-3.6131,-3.6131,-3.6131,-3.6131,-3.6131,-3.6131,-3.6139,-3.6121,-3.6132,-3.6115,-3.612,-3.611,-3.6109,-3.6109,-3.611,-3.6097,-3.6091,-3.6097,-3.6101,-3.6094,-3.6086,-3.6088,-3.6084,-3.6072,-3.6076,-3.6125,-3.6133,-3.614,-3.6145,-3.6071,-3.6071,-3.6024,-3.6023,-3.6023]}]]